User: anonymous   Login
Location: Stigler
(35.2540°N, 95.1230°W)
Time: 02:58:10
(UTC-05:00)
Language:

Cosmos 1805 - Orbit

View from above orbital plane
View from above orbital plane
View from above satellite
View from above satellite

Ground track
Ground track

The orbit data is extracted from the following two-line orbital elements,

1 17191U 86097A   14295.39119437  .00007096  00000-0  45830-3 0   195
2 17191 082.5002 261.4655 0009015 139.8638 220.3258 15.08067789517398
Epoch (UTC): 22 October 2014 09:23:19
Eccentricity: 0.0009015
inclination: 82.5002°
perigee height: 536 km
apogee height: 548 km
right ascension of ascending node: 261.4655°
argument of perigee: 139.8638°
revolutions per day: 15.08067789
mean anomaly at epoch: 220.3258°
orbit number at epoch: 51739

The dashed part of the orbit path shows where the satellite is in the earth's shadow,  

DLR